Time,TemperatureF,DewpointF,PressureIn,WindDirection,WindDirectionDegrees,WindSpeedMPH,WindSpeedGustMPH,Humidity,HourlyPrecipIn,Conditions,Clouds,dailyrainin,SoftwareType,DateUTC
2015-09-03 00:02:00,66.6,64.8,29.76,SSW,208,0.0,0.0,94,0.00,,,0.00,WeatherCatV2.10B1306,2015-09-03 04:02:00,
2015-09-03 00:07:00,66.6,64.8,29.76,SSW,208,0.0,0.0,94,0.00,,,0.00,WeatherCatV2.10B1306,2015-09-03 04:07:00,
2015-09-03 00:12:00,66.6,64.8,29.76,SSW,208,0.0,0.0,94,0.00,,,0.00,WeatherCatV2.10B1306,2015-09-03 04:12:00,
2015-09-03 00:17:00,66.7,65.2,29.76,SSW,208,0.0,0.0,95,0.00,,,0.00,WeatherCatV2.10B1306,2015-09-03 04:17:00,
2015-09-03 00:22:00,66.7,65.2,29.76,SSW,208,0.0,0.0,95,0.00,,,0.00,WeatherCatV2.10B1306,2015-09-03 04:22:00,
2015-09-03 00:28:00,66.7,65.2,29.76,SSW,208,0.0,0.0,95,0.00,,,0.00,WeatherCatV2.10B1306,2015-09-03 04:28:00,
2015-09-03 00:33:00,66.5,64.7,29.75,SSW,208,0.0,0.0,94,0.00,,,0.00,WeatherCatV2.10B1306,2015-09-03 04:33:00,
2015-09-03 00:38:00,66.5,65.0,29.75,SSW,208,0.0,0.0,95,0.00,,,0.00,WeatherCatV2.10B1306,2015-09-03 04:38:00,
2015-09-03 00:43:00,66.5,65.0,29.75,SSW,208,0.0,0.0,95,0.00,,,0.00,WeatherCatV2.10B1306,2015-09-03 04:43:00,
2015-09-03 00:48:00,66.5,65.0,29.75,SSW,208,0.0,0.0,95,0.00,,,0.00,WeatherCatV2.10B1306,2015-09-03 04:48:00,
2015-09-03 00:53:00,66.3,64.8,29.75,SSW,208,0.0,0.0,95,0.00,,,0.00,WeatherCatV2.10B1306,2015-09-03 04:53:00,
2015-09-03 00:58:00,66.1,64.6,29.75,SSW,208,0.0,0.0,95,0.00,,,0.00,WeatherCatV2.10B1306,2015-09-03 04:58:00,
2015-09-03 01:03:00,65.9,64.4,29.75,SSW,208,0.0,0.0,95,0.00,,,0.00,WeatherCatV2.10B1306,2015-09-03 05:03:00,
2015-09-03 01:08:00,65.7,64.2,29.75,SSW,208,0.0,0.0,95,0.00,,,0.00,WeatherCatV2.10B1306,2015-09-03 05:08:00,
2015-09-03 01:13:00,65.8,64.3,29.75,SSW,208,0.0,0.0,95,0.00,,,0.00,WeatherCatV2.10B1306,2015-09-03 05:13:00,
2015-09-03 01:18:00,65.8,64.3,29.75,SSW,208,0.0,0.0,95,0.00,,,0.00,WeatherCatV2.10B1306,2015-09-03 05:18:00,
2015-09-03 01:23:00,66.1,64.6,29.75,SSW,208,0.0,0.0,95,0.00,,,0.00,WeatherCatV2.10B1306,2015-09-03 05:23:00,
2015-09-03 01:28:00,66.2,64.7,29.75,SSW,208,0.0,0.0,95,0.00,,,0.00,WeatherCatV2.10B1306,2015-09-03 05:28:00,
2015-09-03 01:33:00,66.3,65.1,29.75,SSW,208,0.0,0.0,96,0.00,,,0.00,WeatherCatV2.10B1306,2015-09-03 05:33:00,
2015-09-03 01:38:00,66.3,65.1,29.75,SSW,208,0.0,0.0,96,0.00,,,0.00,WeatherCatV2.10B1306,2015-09-03 05:38:00,
2015-09-03 01:43:00,66.2,65.0,29.75,SSW,208,0.0,0.0,96,0.00,,,0.00,WeatherCatV2.10B1306,2015-09-03 05:43:00,
2015-09-03 01:48:00,66.1,64.6,29.75,SSW,208,0.0,0.0,95,0.00,,,0.00,WeatherCatV2.10B1306,2015-09-03 05:48:00,
2015-09-03 01:53:00,66.1,64.6,29.75,SSW,208,0.0,0.0,95,0.00,,,0.00,WeatherCatV2.10B1306,2015-09-03 05:53:00,
2015-09-03 01:58:00,66.2,65.0,29.75,SSW,208,0.0,0.0,96,0.00,,,0.00,WeatherCatV2.10B1306,2015-09-03 05:58:00,
2015-09-03 02:03:00,66.2,65.0,29.75,SSW,208,0.0,0.0,96,0.00,,,0.00,WeatherCatV2.10B1306,2015-09-03 06:03:00,
2015-09-03 02:08:00,66.2,65.0,29.75,SSW,208,0.0,0.0,96,0.00,,,0.00,WeatherCatV2.10B1306,2015-09-03 06:08:00,
2015-09-03 02:13:00,66.1,64.9,29.75,SSW,208,0.0,0.0,96,0.00,,,0.00,WeatherCatV2.10B1306,2015-09-03 06:13:00,
2015-09-03 02:18:00,66.0,64.8,29.75,SSW,208,0.0,0.0,96,0.00,,,0.00,WeatherCatV2.10B1306,2015-09-03 06:18:00,
2015-09-03 02:23:00,65.8,64.6,29.75,SSW,208,0.0,0.0,96,0.00,,,0.00,WeatherCatV2.10B1306,2015-09-03 06:23:00,
2015-09-03 02:28:00,65.7,64.5,29.75,SSW,208,0.0,0.0,96,0.00,,,0.00,WeatherCatV2.10B1306,2015-09-03 06:28:00,
2015-09-03 02:33:00,65.5,64.0,29.75,SSW,208,0.0,0.0,95,0.00,,,0.00,WeatherCatV2.10B1306,2015-09-03 06:33:00,
2015-09-03 02:38:00,65.4,63.9,29.74,SSW,208,0.0,0.0,95,0.00,,,0.00,WeatherCatV2.10B1306,2015-09-03 06:38:00,
2015-09-03 02:43:00,65.3,64.1,29.74,SSW,208,0.0,0.0,96,0.00,,,0.00,WeatherCatV2.10B1306,2015-09-03 06:43:00,
2015-09-03 02:48:00,65.4,64.2,29.74,SSW,208,0.0,0.0,96,0.00,,,0.00,WeatherCatV2.10B1306,2015-09-03 06:48:00,
2015-09-03 02:53:00,65.3,64.1,29.74,SSW,208,0.0,0.0,96,0.00,,,0.00,WeatherCatV2.10B1306,2015-09-03 06:53:00,
2015-09-03 02:58:00,65.2,64.0,29.74,SSW,208,0.0,0.0,96,0.00,,,0.00,WeatherCatV2.10B1306,2015-09-03 06:58:00,
2015-09-03 03:03:00,65.1,63.9,29.74,SSW,208,0.0,0.0,96,0.00,,,0.00,WeatherCatV2.10B1306,2015-09-03 07:03:00,
2015-09-03 03:08:00,65.0,63.8,29.74,SSW,208,0.0,0.0,96,0.00,,,0.00,WeatherCatV2.10B1306,2015-09-03 07:08:00,
2015-09-03 03:13:00,64.9,63.7,29.74,SSW,208,0.0,0.0,96,0.00,,,0.00,WeatherCatV2.10B1306,2015-09-03 07:13:00,
2015-09-03 03:18:00,64.8,63.6,29.74,SSW,208,0.0,0.0,96,0.00,,,0.00,WeatherCatV2.10B1306,2015-09-03 07:18:00,
2015-09-03 03:23:00,64.7,63.5,29.74,SSW,208,0.0,0.0,96,0.00,,,0.00,WeatherCatV2.10B1306,2015-09-03 07:23:00,
2015-09-03 03:28:00,64.6,63.4,29.74,SSW,208,0.0,0.0,96,0.00,,,0.00,WeatherCatV2.10B1306,2015-09-03 07:28:00,
2015-09-03 03:33:00,64.8,63.6,29.74,SSW,208,0.0,0.0,96,0.00,,,0.00,WeatherCatV2.10B1306,2015-09-03 07:33:00,
2015-09-03 03:38:00,64.9,63.7,29.74,SSW,208,0.0,0.0,96,0.00,,,0.00,WeatherCatV2.10B1306,2015-09-03 07:38:00,
2015-09-03 03:43:00,65.0,63.8,29.74,SSW,208,0.0,0.0,96,0.00,,,0.00,WeatherCatV2.10B1306,2015-09-03 07:43:00,
2015-09-03 03:48:00,64.9,63.7,29.74,SSW,208,0.0,0.0,96,0.00,,,0.00,WeatherCatV2.10B1306,2015-09-03 07:48:00,
2015-09-03 03:53:00,64.8,63.6,29.74,SSW,208,0.0,0.0,96,0.00,,,0.00,WeatherCatV2.10B1306,2015-09-03 07:53:00,
2015-09-03 03:58:00,64.7,63.5,29.74,SSW,208,0.0,0.0,96,0.00,,,0.00,WeatherCatV2.10B1306,2015-09-03 07:58:00,
2015-09-03 04:03:00,64.6,63.4,29.74,SSW,208,0.0,0.0,96,0.00,,,0.00,WeatherCatV2.10B1306,2015-09-03 08:03:00,
2015-09-03 04:08:00,64.4,63.2,29.74,SSW,208,0.0,0.0,96,0.00,,,0.00,WeatherCatV2.10B1306,2015-09-03 08:08:00,
2015-09-03 04:13:00,64.3,63.1,29.74,SSW,208,0.0,0.0,96,0.00,,,0.00,WeatherCatV2.10B1306,2015-09-03 08:13:00,
2015-09-03 04:18:00,64.2,63.0,29.74,SSW,208,0.0,0.0,96,0.00,,,0.00,WeatherCatV2.10B1306,2015-09-03 08:18:00,
2015-09-03 04:23:00,64.1,62.9,29.74,SSW,208,0.0,0.0,96,0.00,,,0.00,WeatherCatV2.10B1306,2015-09-03 08:23:00,
2015-09-03 04:28:00,64.1,62.9,29.74,SSW,208,0.0,0.0,96,0.00,,,0.00,WeatherCatV2.10B1306,2015-09-03 08:28:00,
2015-09-03 04:33:00,64.0,62.8,29.74,SSW,208,0.0,0.0,96,0.00,,,0.00,WeatherCatV2.10B1306,2015-09-03 08:33:00,
2015-09-03 04:38:00,63.9,62.7,29.74,SSW,208,0.0,0.0,96,0.00,,,0.00,WeatherCatV2.10B1306,2015-09-03 08:38:00,
2015-09-03 04:43:00,63.9,62.7,29.75,SSW,208,0.0,0.0,96,0.00,,,0.00,WeatherCatV2.10B1306,2015-09-03 08:43:00,
2015-09-03 04:48:00,63.9,62.7,29.74,SSW,208,0.0,0.0,96,0.00,,,0.00,WeatherCatV2.10B1306,2015-09-03 08:48:00,
2015-09-03 04:53:00,63.9,62.7,29.74,SSW,208,0.0,0.0,96,0.00,,,0.00,WeatherCatV2.10B1306,2015-09-03 08:53:00,
2015-09-03 04:58:00,63.7,62.5,29.74,SSW,208,0.0,0.0,96,0.00,,,0.00,WeatherCatV2.10B1306,2015-09-03 08:58:00,
2015-09-03 05:03:00,63.9,62.7,29.74,SSW,208,0.0,0.0,96,0.00,,,0.00,WeatherCatV2.10B1306,2015-09-03 09:03:00,
2015-09-03 05:08:00,64.0,62.8,29.75,SSW,208,0.0,0.0,96,0.00,,,0.00,WeatherCatV2.10B1306,2015-09-03 09:08:00,
2015-09-03 05:13:00,64.0,62.8,29.74,SSW,208,0.0,0.0,96,0.00,,,0.00,WeatherCatV2.10B1306,2015-09-03 09:13:00,
2015-09-03 05:18:00,63.9,62.7,29.75,SSW,208,0.0,0.0,96,0.00,,,0.00,WeatherCatV2.10B1306,2015-09-03 09:18:00,
2015-09-03 05:23:00,63.8,62.6,29.74,SSW,208,0.0,0.0,96,0.00,,,0.00,WeatherCatV2.10B1306,2015-09-03 09:23:00,
2015-09-03 05:28:00,63.9,62.7,29.74,SSW,208,0.0,0.0,96,0.00,,,0.00,WeatherCatV2.10B1306,2015-09-03 09:28:00,
2015-09-03 05:33:00,64.1,62.9,29.74,SSW,208,0.0,0.0,96,0.00,,,0.00,WeatherCatV2.10B1306,2015-09-03 09:33:00,
2015-09-03 05:38:00,64.3,63.1,29.74,SSW,208,0.0,0.0,96,0.00,,,0.00,WeatherCatV2.10B1306,2015-09-03 09:38:00,
2015-09-03 05:43:00,64.3,63.1,29.74,SSW,208,0.0,0.0,96,0.00,,,0.00,WeatherCatV2.10B1306,2015-09-03 09:43:00,
2015-09-03 05:48:00,64.2,63.0,29.74,SSW,208,0.0,0.0,96,0.00,,,0.00,WeatherCatV2.10B1306,2015-09-03 09:48:00,
2015-09-03 05:53:00,64.0,63.1,29.75,SSW,208,0.0,0.0,97,0.00,,,0.00,WeatherCatV2.10B1306,2015-09-03 09:53:00,
2015-09-03 05:58:00,63.9,62.7,29.75,SSW,208,0.0,0.0,96,0.00,,,0.00,WeatherCatV2.10B1306,2015-09-03 09:58:00,
2015-09-03 06:03:00,63.9,63.0,29.74,SSW,208,0.0,0.0,97,0.00,,,0.00,WeatherCatV2.10B1306,2015-09-03 10:03:00,
2015-09-03 06:08:00,64.1,63.2,29.75,SSW,208,0.0,0.0,97,0.00,,,0.00,WeatherCatV2.10B1306,2015-09-03 10:08:00,
2015-09-03 06:13:00,64.2,63.3,29.75,SSW,208,0.0,0.0,97,0.00,,,0.00,WeatherCatV2.10B1306,2015-09-03 10:13:00,
2015-09-03 06:18:00,64.2,63.3,29.75,SSW,208,0.0,0.0,97,0.00,,,0.00,WeatherCatV2.10B1306,2015-09-03 10:18:00,
2015-09-03 06:23:00,64.1,63.2,29.75,SSW,208,0.0,0.0,97,0.00,,,0.00,WeatherCatV2.10B1306,2015-09-03 10:23:00,
2015-09-03 06:28:00,64.1,63.2,29.75,SSW,208,0.0,0.0,97,0.00,,,0.00,WeatherCatV2.10B1306,2015-09-03 10:28:00,
2015-09-03 06:33:00,64.0,63.1,29.75,SSW,208,0.0,0.0,97,0.00,,,0.00,WeatherCatV2.10B1306,2015-09-03 10:33:00,
2015-09-03 06:38:00,64.0,63.1,29.75,SSW,208,0.0,0.0,97,0.00,,,0.00,WeatherCatV2.10B1306,2015-09-03 10:38:00,
2015-09-03 06:48:00,63.9,63.0,29.75,SSW,208,0.0,0.0,97,0.00,,,0.00,WeatherCatV2.10B1306,2015-09-03 10:48:00,
2015-09-03 06:53:00,64.0,63.1,29.75,SSW,208,0.0,0.0,97,0.00,,,0.00,WeatherCatV2.10B1306,2015-09-03 10:53:00,
2015-09-03 06:58:00,64.1,63.2,29.76,SSW,208,0.0,0.0,97,0.00,,,0.00,WeatherCatV2.10B1306,2015-09-03 10:58:00,
2015-09-03 07:03:00,64.2,63.3,29.76,SSW,208,0.0,0.0,97,0.00,,,0.00,WeatherCatV2.10B1306,2015-09-03 11:03:00,
2015-09-03 07:08:00,64.3,63.4,29.76,SSW,208,0.0,0.0,97,0.00,,,0.00,WeatherCatV2.10B1306,2015-09-03 11:08:00,
2015-09-03 07:13:00,64.4,63.5,29.77,SSW,208,0.0,0.0,97,0.00,,,0.00,WeatherCatV2.10B1306,2015-09-03 11:13:00,
2015-09-03 07:18:00,64.6,63.7,29.77,SSW,208,0.0,0.0,97,0.00,,,0.00,WeatherCatV2.10B1306,2015-09-03 11:18:00,
2015-09-03 07:23:00,64.8,63.9,29.77,SSW,208,0.0,0.0,97,0.00,,,0.00,WeatherCatV2.10B1306,2015-09-03 11:23:00,
2015-09-03 07:28:00,65.1,64.2,29.77,SSW,208,0.0,0.0,97,0.00,,,0.00,WeatherCatV2.10B1306,2015-09-03 11:28:00,
2015-09-03 07:33:00,65.4,64.5,29.77,SSW,208,0.0,0.0,97,0.00,,,0.00,WeatherCatV2.10B1306,2015-09-03 11:33:00,
2015-09-03 07:38:00,65.8,64.9,29.77,SSW,208,0.0,0.0,97,0.00,,,0.00,WeatherCatV2.10B1306,2015-09-03 11:38:00,
2015-09-03 07:43:00,65.9,65.0,29.77,SSW,208,0.0,0.0,97,0.00,,,0.00,WeatherCatV2.10B1306,2015-09-03 11:43:00,
2015-09-03 07:48:00,66.2,65.3,29.77,SSW,208,0.0,0.0,97,0.00,,,0.00,WeatherCatV2.10B1306,2015-09-03 11:48:00,
2015-09-03 07:53:00,66.5,65.6,29.77,SSW,208,0.0,0.0,97,0.00,,,0.00,WeatherCatV2.10B1306,2015-09-03 11:53:00,
2015-09-03 07:58:00,66.7,65.8,29.77,SSW,208,0.0,0.0,97,0.00,,,0.00,WeatherCatV2.10B1306,2015-09-03 11:58:00,
2015-09-03 08:03:00,66.9,66.0,29.77,SSW,208,0.0,0.0,97,0.00,,,0.00,WeatherCatV2.10B1306,2015-09-03 12:03:00,
2015-09-03 08:09:00,67.5,66.6,29.77,SSW,208,0.0,0.0,97,0.00,,,0.00,WeatherCatV2.10B1306,2015-09-03 12:09:00,
2015-09-03 08:14:00,67.9,67.0,29.78,SSW,208,0.0,0.0,97,0.00,,,0.00,WeatherCatV2.10B1306,2015-09-03 12:14:00,
2015-09-03 08:19:00,68.3,67.4,29.78,SSW,208,0.0,0.0,97,0.00,,,0.00,WeatherCatV2.10B1306,2015-09-03 12:19:00,
2015-09-03 08:24:00,68.6,67.7,29.78,SSW,208,0.0,0.0,97,0.00,,,0.00,WeatherCatV2.10B1306,2015-09-03 12:24:00,
2015-09-03 08:29:00,69.2,68.3,29.77,SSW,208,0.0,0.0,97,0.00,,,0.00,WeatherCatV2.10B1306,2015-09-03 12:29:00,
2015-09-03 08:34:00,69.6,68.7,29.77,SSW,208,0.0,0.0,97,0.00,,,0.00,WeatherCatV2.10B1306,2015-09-03 12:34:00,
2015-09-03 08:39:00,70.1,69.2,29.78,SSW,208,0.0,0.0,97,0.00,,,0.00,WeatherCatV2.10B1306,2015-09-03 12:39:00,
2015-09-03 08:44:00,70.6,69.7,29.78,SSW,208,0.0,0.0,97,0.00,,,0.00,WeatherCatV2.10B1306,2015-09-03 12:44:00,
2015-09-03 08:49:00,71.2,70.3,29.78,SSW,208,0.0,0.0,97,0.00,,,0.00,WeatherCatV2.10B1306,2015-09-03 12:49:00,
2015-09-03 08:54:00,71.7,70.8,29.78,SSW,208,0.0,0.0,97,0.00,,,0.00,WeatherCatV2.10B1306,2015-09-03 12:54:00,
2015-09-03 08:59:00,72.4,71.5,29.78,SSW,208,0.0,0.0,97,0.00,,,0.00,WeatherCatV2.10B1306,2015-09-03 12:59:00,
2015-09-03 09:04:00,73.3,72.4,29.78,SSW,208,0.0,1.0,97,0.00,,,0.00,WeatherCatV2.10B1306,2015-09-03 13:04:00,
2015-09-03 09:09:00,74.0,72.2,29.78,SSW,208,0.0,0.0,94,0.00,,,0.00,WeatherCatV2.10B1306,2015-09-03 13:09:00,
2015-09-03 09:14:00,74.5,71.4,29.78,SSW,208,0.0,1.0,90,0.00,,,0.00,WeatherCatV2.10B1306,2015-09-03 13:14:00,
2015-09-03 09:19:00,74.8,71.0,29.78,SSW,208,0.0,0.0,88,0.00,,,0.00,WeatherCatV2.10B1306,2015-09-03 13:19:00,
2015-09-03 09:24:00,75.2,71.1,29.78,SSW,208,0.0,0.0,87,0.00,,,0.00,WeatherCatV2.10B1306,2015-09-03 13:24:00,
2015-09-03 09:29:00,75.6,71.1,29.79,SSW,208,0.0,0.0,86,0.00,,,0.00,WeatherCatV2.10B1306,2015-09-03 13:29:00,
2015-09-03 09:34:00,76.0,70.8,29.78,SSW,208,0.0,1.0,84,0.00,,,0.00,WeatherCatV2.10B1306,2015-09-03 13:34:00,
2015-09-03 09:39:00,76.4,70.8,29.79,SSW,208,0.0,1.0,83,0.00,,,0.00,WeatherCatV2.10B1306,2015-09-03 13:39:00,
2015-09-03 09:44:00,76.8,70.9,29.78,SSW,208,0.0,1.0,82,0.00,,,0.00,WeatherCatV2.10B1306,2015-09-03 13:44:00,
2015-09-03 09:49:00,77.7,71.4,29.79,SSW,208,0.0,0.0,81,0.00,,,0.00,WeatherCatV2.10B1306,2015-09-03 13:49:00,
2015-09-03 09:54:00,78.4,71.7,29.78,East,93,2.0,2.0,80,0.00,,,0.00,WeatherCatV2.10B1306,2015-09-03 13:54:00,
2015-09-03 09:59:00,78.8,70.2,29.78,East,96,1.0,3.0,75,0.00,,,0.00,WeatherCatV2.10B1306,2015-09-03 13:59:00,
2015-09-03 10:04:00,79.1,70.5,29.78,East,96,0.0,0.0,75,0.00,,,0.00,WeatherCatV2.10B1306,2015-09-03 14:04:00,
2015-09-03 10:09:00,79.4,70.4,29.78,East,101,0.0,2.0,74,0.00,,,0.00,WeatherCatV2.10B1306,2015-09-03 14:09:00,
2015-09-03 10:14:00,79.9,70.8,29.78,ENE,65,1.0,2.0,74,0.00,,,0.00,WeatherCatV2.10B1306,2015-09-03 14:14:00,
2015-09-03 10:19:00,80.0,70.1,29.78,ENE,66,1.0,3.0,72,0.00,,,0.00,WeatherCatV2.10B1306,2015-09-03 14:19:00,
2015-09-03 10:24:00,80.0,70.6,29.78,ENE,74,0.0,1.0,73,0.00,,,0.00,WeatherCatV2.10B1306,2015-09-03 14:24:00,
2015-09-03 10:29:00,80.3,71.2,29.78,ENE,74,0.0,2.0,74,0.00,,,0.00,WeatherCatV2.10B1306,2015-09-03 14:29:00,
2015-09-03 10:34:00,80.4,71.7,29.78,ENE,74,0.0,1.0,75,0.00,,,0.00,WeatherCatV2.10B1306,2015-09-03 14:34:00,
2015-09-03 10:39:00,80.3,71.2,29.78,ESE,102,3.0,3.0,74,0.00,,,0.00,WeatherCatV2.10B1306,2015-09-03 14:39:00,
2015-09-03 10:44:00,80.2,71.9,29.78,ESE,102,1.0,1.0,76,0.00,,,0.00,WeatherCatV2.10B1306,2015-09-03 14:44:00,
2015-09-03 10:49:00,80.4,71.7,29.78,ESE,102,0.0,1.0,75,0.00,,,0.00,WeatherCatV2.10B1306,2015-09-03 14:49:00,
2015-09-03 10:54:00,80.9,71.8,29.78,ESE,102,0.0,1.0,74,0.00,,,0.00,WeatherCatV2.10B1306,2015-09-03 14:54:00,
2015-09-03 10:59:00,81.3,71.0,29.78,SE,128,0.0,0.0,71,0.00,,,0.00,WeatherCatV2.10B1306,2015-09-03 14:59:00,
2015-09-03 11:04:00,81.9,71.6,29.78,SE,128,1.0,2.0,71,0.00,,,0.00,WeatherCatV2.10B1306,2015-09-03 15:04:00,
2015-09-03 11:09:00,82.0,72.9,29.78,NW,322,3.0,3.0,74,0.00,,,0.00,WeatherCatV2.10B1306,2015-09-03 15:09:00,
2015-09-03 11:14:00,82.0,71.6,29.78,NW,320,2.0,3.0,71,0.00,,,0.00,WeatherCatV2.10B1306,2015-09-03 15:14:00,
2015-09-03 11:19:00,81.5,70.8,29.78,SW,223,1.0,3.0,70,0.00,,,0.00,WeatherCatV2.10B1306,2015-09-03 15:19:00,
2015-09-03 11:24:00,81.7,72.6,29.78,SW,223,0.0,0.0,74,0.00,,,0.00,WeatherCatV2.10B1306,2015-09-03 15:24:00,
2015-09-03 11:29:00,82.3,71.5,29.78,SW,223,0.0,1.0,70,0.00,,,0.00,WeatherCatV2.10B1306,2015-09-03 15:29:00,
2015-09-03 11:34:00,82.9,71.2,29.78,SW,225,0.0,4.0,68,0.00,,,0.00,WeatherCatV2.10B1306,2015-09-03 15:34:00,
2015-09-03 11:39:00,83.1,71.4,29.78,SW,227,1.0,3.0,68,0.00,,,0.00,WeatherCatV2.10B1306,2015-09-03 15:39:00,
2015-09-03 11:44:00,82.9,71.7,29.77,SW,228,0.0,1.0,69,0.00,,,0.00,WeatherCatV2.10B1306,2015-09-03 15:44:00,
2015-09-03 11:49:00,83.4,71.7,29.77,SW,232,1.0,1.0,68,0.00,,,0.00,WeatherCatV2.10B1306,2015-09-03 15:49:00,
2015-09-03 11:54:00,83.6,71.0,29.77,SSW,209,1.0,3.0,66,0.00,,,0.00,WeatherCatV2.10B1306,2015-09-03 15:54:00,
2015-09-03 11:59:00,83.6,71.0,29.77,SW,224,0.0,2.0,66,0.00,,,0.00,WeatherCatV2.10B1306,2015-09-03 15:59:00,
2015-09-03 12:04:00,83.6,70.1,29.77,SW,224,0.0,2.0,64,0.00,,,0.00,WeatherCatV2.10B1306,2015-09-03 16:04:00,
2015-09-03 12:09:00,83.9,69.9,29.77,SW,227,1.0,4.0,63,0.00,,,0.00,WeatherCatV2.10B1306,2015-09-03 16:09:00,
2015-09-03 12:14:00,83.9,70.8,29.77,SW,224,2.0,6.0,65,0.00,,,0.00,WeatherCatV2.10B1306,2015-09-03 16:14:00,
2015-09-03 12:19:00,84.0,70.5,29.77,SW,224,0.0,1.0,64,0.00,,,0.00,WeatherCatV2.10B1306,2015-09-03 16:19:00,
2015-09-03 12:24:00,84.4,69.4,29.76,SW,223,0.0,2.0,61,0.00,,,0.00,WeatherCatV2.10B1306,2015-09-03 16:24:00,
2015-09-03 12:29:00,84.7,71.1,29.76,SW,224,0.0,3.0,64,0.00,,,0.00,WeatherCatV2.10B1306,2015-09-03 16:29:00,
2015-09-03 12:34:00,84.8,69.8,29.76,WSW,256,1.0,3.0,61,0.00,,,0.00,WeatherCatV2.10B1306,2015-09-03 16:34:00,
2015-09-03 12:39:00,84.9,70.9,29.76,WSW,254,3.0,4.0,63,0.00,,,0.00,WeatherCatV2.10B1306,2015-09-03 16:39:00,
2015-09-03 12:44:00,84.9,69.9,29.76,WSW,240,2.0,4.0,61,0.00,,,0.00,WeatherCatV2.10B1306,2015-09-03 16:44:00,
2015-09-03 12:49:00,84.8,70.3,29.76,WSW,247,2.0,3.0,62,0.00,,,0.00,WeatherCatV2.10B1306,2015-09-03 16:49:00,
2015-09-03 12:54:00,84.9,70.9,29.76,WSW,243,4.0,5.0,63,0.00,,,0.00,WeatherCatV2.10B1306,2015-09-03 16:54:00,
2015-09-03 12:59:00,85.0,71.4,29.76,SSW,213,0.0,3.0,64,0.00,,,0.00,WeatherCatV2.10B1306,2015-09-03 16:59:00,
2015-09-03 13:04:00,85.1,70.1,29.76,SW,231,0.0,5.0,61,0.00,,,0.00,WeatherCatV2.10B1306,2015-09-03 17:04:00,
2015-09-03 13:09:00,85.4,70.9,29.76,SW,231,3.0,3.0,62,0.00,,,0.00,WeatherCatV2.10B1306,2015-09-03 17:09:00,
2015-09-03 13:14:00,85.8,70.8,29.76,SW,221,0.0,4.0,61,0.00,,,0.00,WeatherCatV2.10B1306,2015-09-03 17:14:00,
2015-09-03 13:19:00,86.2,70.2,29.76,WNW,286,3.0,5.0,59,0.00,,,0.00,WeatherCatV2.10B1306,2015-09-03 17:19:00,
2015-09-03 13:24:00,86.0,70.5,29.75,West,259,3.0,5.0,60,0.00,,,0.00,WeatherCatV2.10B1306,2015-09-03 17:24:00,
2015-09-03 13:29:00,85.8,70.8,29.75,WSW,250,3.0,4.0,61,0.00,,,0.00,WeatherCatV2.10B1306,2015-09-03 17:29:00,
2015-09-03 13:34:00,85.7,71.6,29.75,West,263,4.0,5.0,63,0.00,,,0.00,WeatherCatV2.10B1306,2015-09-03 17:34:00,
2015-09-03 13:39:00,85.8,70.3,29.75,West,263,0.0,4.0,60,0.00,,,0.00,WeatherCatV2.10B1306,2015-09-03 17:39:00,
2015-09-03 13:44:00,86.1,70.6,29.76,WSW,243,0.0,2.0,60,0.00,,,0.00,WeatherCatV2.10B1306,2015-09-03 17:44:00,
2015-09-03 13:49:00,86.5,70.9,29.76,West,267,2.0,4.0,60,0.00,,,0.00,WeatherCatV2.10B1306,2015-09-03 17:49:00,
2015-09-03 13:54:00,86.7,70.6,29.76,SSW,209,1.0,5.0,59,0.00,,,0.00,WeatherCatV2.10B1306,2015-09-03 17:54:00,
2015-09-03 13:59:00,86.9,70.8,29.75,SW,222,1.0,5.0,59,0.00,,,0.00,WeatherCatV2.10B1306,2015-09-03 17:59:00,
2015-09-03 14:04:00,86.8,70.7,29.75,SW,221,0.0,4.0,59,0.00,,,0.00,WeatherCatV2.10B1306,2015-09-03 18:04:00,
2015-09-03 14:09:00,87.3,70.7,29.75,WNW,290,5.0,5.0,58,0.00,,,0.00,WeatherCatV2.10B1306,2015-09-03 18:09:00,
2015-09-03 14:14:00,87.0,71.9,29.75,West,260,3.0,5.0,61,0.00,,,0.00,WeatherCatV2.10B1306,2015-09-03 18:14:00,
2015-09-03 14:19:00,86.6,71.5,29.75,SW,216,5.0,5.0,61,0.00,,,0.00,WeatherCatV2.10B1306,2015-09-03 18:19:00,
2015-09-03 14:24:00,86.7,72.1,29.75,NE,52,2.0,5.0,62,0.00,,,0.00,WeatherCatV2.10B1306,2015-09-03 18:24:00,
2015-09-03 14:30:00,86.5,73.3,29.75,SSW,194,0.0,3.0,65,0.00,,,0.00,WeatherCatV2.10B1306,2015-09-03 18:30:00,
2015-09-03 14:35:00,86.3,73.6,29.75,South,171,1.0,7.0,66,0.00,,,0.00,WeatherCatV2.10B1306,2015-09-03 18:35:00,
2015-09-03 14:40:00,86.2,72.6,29.75,NE,36,4.0,4.0,64,0.00,,,0.00,WeatherCatV2.10B1306,2015-09-03 18:40:00,
2015-09-03 14:45:00,86.0,71.4,29.75,SW,230,0.0,7.0,62,0.00,,,0.00,WeatherCatV2.10B1306,2015-09-03 18:45:00,
2015-09-03 14:50:00,85.5,72.4,29.75,SW,228,0.0,9.0,65,0.00,,,0.00,WeatherCatV2.10B1306,2015-09-03 18:50:00,
2015-09-03 14:55:00,85.4,72.7,29.74,East,87,0.0,5.0,66,0.00,,,0.00,WeatherCatV2.10B1306,2015-09-03 18:55:00,
2015-09-03 15:00:00,85.3,73.5,29.74,SSW,203,2.0,6.0,68,0.00,,,0.00,WeatherCatV2.10B1306,2015-09-03 19:00:00,
2015-09-03 15:05:00,84.7,72.5,29.74,WSW,247,1.0,5.0,67,0.00,,,0.00,WeatherCatV2.10B1306,2015-09-03 19:05:00,
2015-09-03 15:10:00,83.9,71.3,29.75,SW,226,3.0,7.0,66,0.00,,,0.00,WeatherCatV2.10B1306,2015-09-03 19:10:00,
2015-09-03 15:15:00,83.1,71.4,29.75,SW,227,4.0,7.0,68,0.00,,,0.00,WeatherCatV2.10B1306,2015-09-03 19:15:00,
2015-09-03 15:20:00,83.0,71.3,29.74,SW,222,5.0,7.0,68,0.00,,,0.00,WeatherCatV2.10B1306,2015-09-03 19:20:00,
2015-09-03 15:25:00,83.5,73.1,29.75,SW,221,6.0,6.0,71,0.00,,,0.00,WeatherCatV2.10B1306,2015-09-03 19:25:00,
2015-09-03 15:30:00,83.8,72.9,29.74,SW,229,0.0,4.0,70,0.00,,,0.00,WeatherCatV2.10B1306,2015-09-03 19:30:00,
2015-09-03 15:35:00,83.7,72.0,29.74,WNW,290,3.0,4.0,68,0.00,,,0.00,WeatherCatV2.10B1306,2015-09-03 19:35:00,
2015-09-03 15:40:00,83.5,72.2,29.74,NW,326,2.0,4.0,69,0.00,,,0.00,WeatherCatV2.10B1306,2015-09-03 19:40:00,
2015-09-03 15:45:00,83.6,71.9,29.74,WSW,243,3.0,7.0,68,0.00,,,0.00,WeatherCatV2.10B1306,2015-09-03 19:45:00,
2015-09-03 15:50:00,83.0,70.9,29.74,WSW,244,1.0,3.0,67,0.00,,,0.00,WeatherCatV2.10B1306,2015-09-03 19:50:00,
2015-09-03 15:55:00,82.2,70.6,29.74,SW,222,0.0,5.0,68,0.00,,,0.00,WeatherCatV2.10B1306,2015-09-03 19:55:00,
2015-09-03 16:00:00,81.8,70.6,29.74,SW,214,1.0,2.0,69,0.00,,,0.00,WeatherCatV2.10B1306,2015-09-03 20:00:00,
2015-09-03 16:05:00,81.7,70.5,29.75,WNW,298,0.0,1.0,69,0.00,,,0.00,WeatherCatV2.10B1306,2015-09-03 20:05:00,
2015-09-03 16:10:00,81.7,70.5,29.75,ENE,77,2.0,2.0,69,0.00,,,0.00,WeatherCatV2.10B1306,2015-09-03 20:10:00,
2015-09-03 16:15:00,81.4,70.7,29.75,South,179,0.0,0.0,70,0.00,,,0.00,WeatherCatV2.10B1306,2015-09-03 20:15:00,
2015-09-03 16:20:00,81.0,70.7,29.75,SSW,209,1.0,2.0,71,0.00,,,0.00,WeatherCatV2.10B1306,2015-09-03 20:20:00,
2015-09-03 16:25:00,80.7,70.0,29.75,ENE,62,0.0,4.0,70,0.00,,,0.00,WeatherCatV2.10B1306,2015-09-03 20:25:00,
2015-09-03 16:30:00,80.7,71.2,29.76,ENE,62,0.0,1.0,73,0.00,,,0.00,WeatherCatV2.10B1306,2015-09-03 20:30:00,
2015-09-03 16:35:00,80.5,69.8,29.76,East,79,0.0,4.0,70,0.00,,,0.00,WeatherCatV2.10B1306,2015-09-03 20:35:00,
2015-09-03 16:40:00,80.4,70.1,29.76,East,79,0.0,1.0,71,0.00,,,0.00,WeatherCatV2.10B1306,2015-09-03 20:40:00,
2015-09-03 16:45:00,80.4,70.1,29.76,ENE,78,0.0,3.0,71,0.00,,,0.00,WeatherCatV2.10B1306,2015-09-03 20:45:00,
2015-09-03 16:50:00,80.7,72.0,29.76,East,79,0.0,0.0,75,0.00,,,0.00,WeatherCatV2.10B1306,2015-09-03 20:50:00,
2015-09-03 16:55:00,81.2,70.5,29.76,ENE,58,4.0,4.0,70,0.00,,,0.00,WeatherCatV2.10B1306,2015-09-03 20:55:00,
2015-09-03 17:00:00,81.4,70.7,29.75,East,91,2.0,4.0,70,0.00,,,0.00,WeatherCatV2.10B1306,2015-09-03 21:00:00,
2015-09-03 17:05:00,81.6,71.7,29.76,East,91,0.0,1.0,72,0.00,,,0.00,WeatherCatV2.10B1306,2015-09-03 21:05:00,
2015-09-03 17:10:00,81.8,71.4,29.75,East,91,0.0,1.0,71,0.00,,,0.00,WeatherCatV2.10B1306,2015-09-03 21:10:00,
2015-09-03 17:15:00,81.7,71.4,29.75,ESE,105,1.0,1.0,71,0.00,,,0.00,WeatherCatV2.10B1306,2015-09-03 21:15:00,
2015-09-03 17:20:00,81.2,70.9,29.76,ESE,105,1.0,2.0,71,0.00,,,0.00,WeatherCatV2.10B1306,2015-09-03 21:20:00,
2015-09-03 17:25:00,80.6,71.5,29.76,ESE,105,0.0,0.0,74,0.00,,,0.00,WeatherCatV2.10B1306,2015-09-03 21:25:00,
2015-09-03 17:30:00,80.1,70.2,29.76,ESE,105,0.0,1.0,72,0.00,,,0.00,WeatherCatV2.10B1306,2015-09-03 21:30:00,
2015-09-03 17:35:00,79.7,71.4,29.76,ESE,105,1.0,1.0,76,0.00,,,0.00,WeatherCatV2.10B1306,2015-09-03 21:35:00,
2015-09-03 17:40:00,78.9,71.4,29.76,ESE,105,0.0,0.0,78,0.00,,,0.00,WeatherCatV2.10B1306,2015-09-03 21:40:00,
2015-09-03 17:45:00,78.4,70.9,29.77,ESE,105,0.0,0.0,78,0.00,,,0.00,WeatherCatV2.10B1306,2015-09-03 21:45:00,
2015-09-03 17:50:00,78.0,70.2,29.76,ESE,105,0.0,0.0,77,0.00,,,0.00,WeatherCatV2.10B1306,2015-09-03 21:50:00,
2015-09-03 17:55:00,77.9,70.1,29.77,ESE,105,0.0,0.0,77,0.00,,,0.00,WeatherCatV2.10B1306,2015-09-03 21:55:00,
2015-09-03 18:00:00,78.0,70.6,29.76,ESE,105,0.0,0.0,78,0.00,,,0.00,WeatherCatV2.10B1306,2015-09-03 22:00:00,
2015-09-03 18:05:00,77.9,69.7,29.76,ESE,105,0.0,0.0,76,0.00,,,0.00,WeatherCatV2.10B1306,2015-09-03 22:05:00,
2015-09-03 18:10:00,77.7,70.3,29.77,ESE,105,1.0,1.0,78,0.00,,,0.00,WeatherCatV2.10B1306,2015-09-03 22:10:00,
2015-09-03 18:15:00,77.5,70.1,29.77,ESE,105,0.0,0.0,78,0.00,,,0.00,WeatherCatV2.10B1306,2015-09-03 22:15:00,
2015-09-03 18:20:00,77.3,70.3,29.77,ESE,105,0.0,0.0,79,0.00,,,0.00,WeatherCatV2.10B1306,2015-09-03 22:20:00,
2015-09-03 18:25:00,77.2,70.2,29.77,ESE,105,0.0,0.0,79,0.00,,,0.00,WeatherCatV2.10B1306,2015-09-03 22:25:00,
2015-09-03 18:30:00,77.1,70.1,29.77,ESE,105,0.0,0.0,79,0.00,,,0.00,WeatherCatV2.10B1306,2015-09-03 22:30:00,
2015-09-03 18:35:00,77.0,70.3,29.77,ESE,105,0.0,0.0,80,0.00,,,0.00,WeatherCatV2.10B1306,2015-09-03 22:35:00,
2015-09-03 18:40:00,76.8,70.5,29.77,ESE,105,0.0,0.0,81,0.00,,,0.00,WeatherCatV2.10B1306,2015-09-03 22:40:00,
2015-09-03 18:45:00,76.6,70.3,29.77,ESE,105,0.0,0.0,81,0.00,,,0.00,WeatherCatV2.10B1306,2015-09-03 22:45:00,
2015-09-03 18:50:00,76.5,70.2,29.77,ESE,105,0.0,0.0,81,0.00,,,0.00,WeatherCatV2.10B1306,2015-09-03 22:50:00,
2015-09-03 18:55:00,76.3,70.4,29.78,ESE,105,0.0,0.0,82,0.00,,,0.00,WeatherCatV2.10B1306,2015-09-03 22:55:00,
2015-09-03 19:00:00,76.0,70.1,29.78,ESE,105,0.0,0.0,82,0.00,,,0.00,WeatherCatV2.10B1306,2015-09-03 23:00:00,
2015-09-03 19:05:00,75.7,70.2,29.78,ESE,105,0.0,0.0,83,0.00,,,0.00,WeatherCatV2.10B1306,2015-09-03 23:05:00,
2015-09-03 19:10:00,75.4,69.9,29.78,ESE,105,0.0,0.0,83,0.00,,,0.00,WeatherCatV2.10B1306,2015-09-03 23:10:00,
2015-09-03 19:15:00,75.1,69.6,29.78,ESE,105,0.0,0.0,83,0.00,,,0.00,WeatherCatV2.10B1306,2015-09-03 23:15:00,
2015-09-03 19:20:00,74.8,69.6,29.78,ESE,105,0.0,0.0,84,0.00,,,0.00,WeatherCatV2.10B1306,2015-09-03 23:20:00,
2015-09-03 19:25:00,74.6,69.4,29.78,ESE,105,0.0,0.0,84,0.00,,,0.00,WeatherCatV2.10B1306,2015-09-03 23:25:00,
2015-09-03 19:30:00,74.3,69.5,29.78,ESE,105,0.0,0.0,85,0.00,,,0.00,WeatherCatV2.10B1306,2015-09-03 23:30:00,
2015-09-03 19:35:00,74.1,69.3,29.78,ESE,105,0.0,0.0,85,0.00,,,0.00,WeatherCatV2.10B1306,2015-09-03 23:35:00,
2015-09-03 19:45:00,73.5,69.0,29.79,ESE,105,0.0,0.0,86,0.00,,,0.00,WeatherCatV2.10B1306,2015-09-03 23:45:00,
2015-09-03 19:50:00,73.4,68.9,29.79,ESE,105,0.0,0.0,86,0.00,,,0.00,WeatherCatV2.10B1306,2015-09-03 23:50:00,
2015-09-03 19:55:00,73.1,68.7,29.79,ESE,105,0.0,0.0,86,0.00,,,0.00,WeatherCatV2.10B1306,2015-09-03 23:55:00,
2015-09-03 20:00:00,73.0,68.6,29.79,ESE,105,0.0,0.0,86,0.00,,,0.00,WeatherCatV2.10B1306,2015-09-04 00:00:00,